ICEYE-X64

operational
NORAD ID: 67373 Int'l Des: 2026-004 Owner: PUOL Country: FI
LEOCIRCULARRETROGRADESSO
追跡 地上

ICEYE-X64について

説明を読み込み中...

リアルタイム位置

3D地球を読み込み中...

次回通過

高度履歴

Altitude vs Time

uPlot chart will show altitude changes over time

軌道要素

1 67373U 26004L 26071.14240362 .00004347 00000-0 48296-3 0 9996
2 67373 97.8016 71.2939 0007595 94.6165 265.5919 14.87686273 8868
Epoch: Mar 12, 2026 • Age: 41 hours

現在のステータス

高度 606.6 km
速度 7.56 km/s
衛星直下点 9.65°N, 176.78°W
打ち上げ日 Jan 11, 2026
運用期間 0.1 years
タイプ other

技術仕様

分類 Payload
質量 120.00 kg
乾燥質量 120.00 kg
総質量 120.00 kg
長さ 0.80 m
直径 0.60 m
スパン 1.50 m
形状 Box + pan
製造者 ICEYE
バスタイプ ICEYE
フェーズステータス In Orbit
所有者/国 PUOL/FI

大規模コンステレーション

Loading constellations...